| time (UTC) | temp F | wind direction | speed MPH | gust MPH | rain 1hr in | rain 24hr in | rain mn in | humidity % | barometer mb |
| 20260507081831 | 40 | 48 | 0.0 | 0.0 | 0.00 | 0.00 | 0.00 | 92 | 1016.0 |
| 20260507080318 | 39 | 48 | 0.0 | 0.0 | 0.00 | 0.00 | 0.00 | 92 | 1015.9 |
| 20260507074818 | 39 | 48 | 0.0 | 0.0 | 0.00 | 0.00 | 0.00 | 92 | 1016.1 |
| 20260507073320 | 38 | 48 | 0.0 | 0.0 | 0.00 | 0.00 | 0.00 | 91 | 1016.0 |
| 20260507071825 | 39 | 48 | 0.0 | 0.0 | 0.00 | 0.00 | 0.00 | 91 | 1016.1 |
| 20260507070328 | 39 | 48 | 0.0 | 0.0 | 0.00 | 0.00 | 0.00 | 91 | 1016.3 |
| 20260507064814 | 38 | 48 | 0.0 | 0.0 | 0.00 | 0.00 | 0.00 | 91 | 1016.4 |
| 20260507063315 | 39 | 48 | 0.0 | 0.0 | 0.00 | 0.00 | 0.00 | 90 | 1016.5 |
| 20260507061817 | 40 | 48 | 0.0 | 0.0 | 0.00 | 0.00 | 0.00 | 91 | 1016.7 |
| 20260507060324 | 40 | 48 | 0.0 | 0.0 | 0.00 | 0.00 | 0.00 | 90 | 1016.6 |
| 20260507054825 | 40 | 48 | 0.0 | 0.0 | 0.00 | 0.00 | 0.00 | 90 | 1016.6 |
| 20260507053331 | 40 | 48 | 0.0 | 0.0 | 0.00 | 0.00 | 0.00 | 90 | 1016.6 |
| 20260507051831 | 40 | 48 | 0.0 | 1.0 | 0.00 | 0.00 | 0.00 | 90 | 1016.6 |
| 20260507050355 | 40 | 48 | 0.0 | 1.0 | 0.00 | 0.00 | 0.00 | 90 | 1016.6 |
| 20260507044818 | 40 | 48 | 0.0 | 0.0 | 0.00 | 0.04 | 0.00 | 89 | 1016.6 |
| 20260507043320 | 41 | 48 | 0.0 | 0.0 | 0.00 | 0.04 | 0.00 | 89 | 1016.6 |
| 20260507041825 | 41 | 48 | 0.0 | 0.0 | 0.00 | 0.04 | 0.00 | 88 | 1016.7 |
| 20260507040328 | 41 | 48 | 0.0 | 0.0 | 0.00 | 0.04 | 0.00 | 88 | 1016.6 |
| 20260507034849 | 42 | 48 | 0.0 | 0.0 | 0.00 | 0.04 | 0.00 | 88 | 1016.5 |
| 20260507033332 | 42 | 48 | 0.0 | 0.0 | 0.00 | 0.04 | 0.00 | 88 | 1016.4 |
| 20260507031854 | 43 | 48 | 0.0 | 0.0 | 0.00 | 0.04 | 0.00 | 87 | 1016.4 |
| 20260507030316 | 43 | 48 | 0.0 | 0.0 | 0.00 | 0.04 | 0.00 | 86 | 1016.3 |
| 20260507024821 | 0 | 0.0 | 0.0 | 0.00 | 0.09 | 0.00 | 1016.3 | ||
| 20260507023322 | 0 | 0.0 | 0.0 | 0.00 | 0.09 | 0.00 | 1016.1 | ||
| 20260507021822 | 0 | 0.0 | 0.0 | 0.00 | 0.09 | 0.00 | 1016.0 | ||
| 20260507014839 | 0 | 0.0 | 0.0 | 0.00 | 0.11 | 0.00 | 1015.5 | ||
| 20260507013340 | 0 | 0.0 | 0.0 | 0.00 | 0.11 | 0.00 | 1015.3 | ||
| 20260507011823 | 0 | 0.0 | 0.0 | 0.00 | 0.11 | 0.00 | 1015.2 | ||
| 20260507010326 | 0 | 0.0 | 0.0 | 0.00 | 0.11 | 0.00 | 1015.2 | ||
| 20260507004830 | 0 | 0.0 | 0.0 | 0.00 | 0.12 | 0.00 | 1015.1 | ||
| 20260507003329 | 0 | 0.0 | 0.0 | 0.00 | 0.12 | 0.00 | 1014.9 | ||
| 20260507001830 | 0 | 0.0 | 0.0 | 0.00 | 0.12 | 0.00 | 1014.8 | ||
| 20260507000314 | 0 | 0.0 | 0.0 | 0.00 | 0.12 | 0.00 | 1014.6 | ||
| 20260506234814 | 0 | 0.0 | 0.0 | 0.00 | 0.12 | 0.00 | 1014.5 | ||
| 20260506233320 | 0 | 0.0 | 0.0 | 0.00 | 0.12 | 0.00 | 1014.4 | ||
| 20260506231821 | 0 | 0.0 | 0.0 | 0.00 | 0.12 | 0.00 | 1014.4 | ||
| 20260506230317 | 61 | 47 | 11.0 | 18.0 | 0.00 | 0.12 | 0.00 | 50 | 1014.3 |
| 20260506224822 | 62 | 24 | 12.0 | 15.0 | 0.00 | 0.12 | 0.00 | 49 | 1014.3 |
| 20260506223322 | 62 | 355 | 7.0 | 15.0 | 0.00 | 0.12 | 0.00 | 51 | 1014.2 |
| 20260506221828 | 63 | 44 | 10.0 | 16.0 | 0.00 | 0.12 | 0.00 | 49 | 1014.1 |
| 20260506220327 | 62 | 51 | 6.0 | 12.0 | 0.00 | 0.12 | 0.00 | 52 | 1014.5 |
| 20260506214829 | 62 | 25 | 5.0 | 15.0 | 0.00 | 0.12 | 0.00 | 48 | 1014.5 |
| 20260506213354 | 61 | 22 | 8.0 | 12.0 | 0.00 | 0.12 | 0.00 | 54 | 1014.5 |
| 20260506211816 | 60 | 51 | 9.0 | 17.0 | 0.00 | 0.12 | 0.00 | 51 | 1014.7 |
| 20260506210320 | 60 | 350 | 6.0 | 16.0 | 0.00 | 0.12 | 0.00 | 53 | 1014.8 |
| 20260506204841 | 0 | 0.0 | 0.0 | 0.00 | 0.12 | 0.00 | 1014.8 | ||
| 20260506203319 | 0 | 0.0 | 0.0 | 0.00 | 0.12 | 0.00 | 1014.8 | ||
| 20260506201824 | 0 | 0.0 | 0.0 | 0.00 | 0.12 | 0.00 | 1015.0 | ||
| 20260506200327 | 0 | 0.0 | 0.0 | 0.00 | 0.12 | 0.00 | 1015.3 | ||
| 20260506194832 | 0 | 0.0 | 0.0 | 0.00 | 0.12 | 0.00 | 1015.2 | ||
| 20260506193314 | 0 | 0.0 | 0.0 | 0.00 | 0.12 | 0.00 | 1015.4 | ||
| 20260506191837 | 0 | 0.0 | 0.0 | 0.00 | 0.12 | 0.00 | 1015.6 | ||
| 20260506184827 | 0 | 0.0 | 0.0 | 0.00 | 0.12 | 0.00 | 1016.1 | ||
| 20260506183314 | 0 | 0.0 | 0.0 | 0.00 | 0.12 | 0.00 | 1016.3 | ||
| 20260506173313 | 0 | 0.0 | 0.0 | 0.00 | 0.12 | 0.00 | 1016.8 | ||
| 20260506170324 | 58 | 339 | 9.0 | 13.0 | 0.00 | 0.12 | 0.00 | 62 | 1017.0 |
| 20260506164828 | 58 | 350 | 4.0 | 18.0 | 0.00 | 0.12 | 0.00 | 60 | 1016.9 |
| 20260506163349 | 58 | 65 | 10.0 | 18.0 | 0.00 | 0.12 | 0.00 | 60 | 1016.7 |
| 20260506161829 | 57 | 348 | 8.0 | 13.0 | 0.00 | 0.12 | 0.00 | 66 | 1016.4 |
| 20260506160315 | 56 | 30 | 9.0 | 15.0 | 0.00 | 0.12 | 0.00 | 68 | 1015.9 |
| 20260506154816 | 56 | 41 | 11.0 | 16.0 | 0.00 | 0.12 | 0.00 | 68 | 1015.6 |
| 20260506153323 | 56 | 26 | 9.0 | 13.0 | 0.00 | 0.12 | 0.00 | 69 | 1015.7 |
| 20260506151826 | 55 | 346 | 6.0 | 13.0 | 0.00 | 0.12 | 0.00 | 71 | 1015.8 |
| 20260506150329 | 54 | 48 | 7.0 | 11.0 | 0.00 | 0.12 | 0.00 | 73 | 1015.9 |
| 20260506144814 | 53 | 54 | 5.0 | 10.0 | 0.00 | 0.12 | 0.00 | 77 | 1015.5 |
| 20260506143316 | 52 | 81 | 2.0 | 9.0 | 0.00 | 0.12 | 0.00 | 78 | 1015.5 |
| 20260506141838 | 52 | 45 | 6.0 | 10.0 | 0.00 | 0.12 | 0.00 | 77 | 1015.9 |
| 20260506140324 | 51 | 26 | 5.0 | 8.0 | 0.00 | 0.12 | 0.00 | 82 | 1015.8 |
| 20260506134826 | 50 | 71 | 4.0 | 9.0 | 0.00 | 0.12 | 0.00 | 84 | 1015.7 |
| 20260506133332 | 50 | 46 | 5.0 | 9.0 | 0.00 | 0.12 | 0.00 | 85 | 1015.7 |
| 20260506131814 | 48 | 51 | 3.0 | 5.0 | 0.00 | 0.12 | 0.00 | 89 | 1015.5 |
| 20260506130316 | 47 | 44 | 3.0 | 8.0 | 0.00 | 0.12 | 0.00 | 90 | 1015.3 |
| 20260506124822 | 47 | 325 | 2.0 | 4.0 | 0.00 | 0.12 | 0.00 | 91 | 1015.6 |
| 20260506123343 | 46 | 38 | 2.0 | 4.0 | 0.00 | 0.12 | 0.00 | 91 | 1015.4 |
| 20260506121827 | 46 | 25 | 1.0 | 4.0 | 0.00 | 0.12 | 0.00 | 91 | 1015.2 |
| 20260506120329 | 46 | 9 | 3.0 | 6.0 | 0.00 | 0.12 | 0.00 | 91 | 1014.7 |
| 20260506114830 | 45 | 96 | 4.0 | 8.0 | 0.00 | 0.12 | 0.00 | 91 | 1014.4 |
| 20260506113315 | 45 | 75 | 3.0 | 5.0 | 0.00 | 0.12 | 0.00 | 91 | 1014.6 |
| 20260506111836 | 45 | 36 | 3.0 | 6.0 | 0.00 | 0.12 | 0.00 | 91 | 1014.4 |
| 20260506110319 | 45 | 39 | 3.0 | 6.0 | 0.00 | 0.12 | 0.00 | 91 | 1014.5 |
| 20260506104824 | 45 | 9 | 4.0 | 9.0 | 0.00 | 0.12 | 0.00 | 91 | 1015.0 |
| 20260506103346 | 46 | 351 | 4.0 | 10.0 | 0.00 | 0.12 | 0.00 | 91 | 1014.7 |
| 20260506101830 | 46 | 343 | 4.0 | 10.0 | 0.00 | 0.12 | 0.00 | 92 | 1014.3 |
| 20260506100332 | 46 | 28 | 4.0 | 8.0 | 0.00 | 0.12 | 0.00 | 92 | 1014.0 |
| 20260506094833 | 46 | 17 | 5.0 | 11.0 | 0.00 | 0.12 | 0.00 | 92 | 1013.8 |
| 20260506093314 | 46 | 28 | 7.0 | 11.0 | 0.00 | 0.12 | 0.00 | 93 | 1013.2 |
| 20260506091815 | 46 | 9 | 5.0 | 10.0 | 0.00 | 0.12 | 0.00 | 93 | 1012.9 |
| 20260506090322 | 46 | 360 | 5.0 | 8.0 | 0.00 | 0.12 | 0.00 | 93 | 1012.8 |
| 20260506084822 | 46 | 16 | 3.0 | 5.0 | 0.00 | 0.12 | 0.00 | 92 | 1012.9 |
| 20260506083324 | 46 | 15 | 2.0 | 5.0 | 0.00 | 0.12 | 0.00 | 92 | 1013.1 |